Time,TemperatureF,DewpointF,PressureIn,WindDirection,WindDirectionDegrees,WindSpeedMPH,WindSpeedGustMPH,Humidity,HourlyPrecipIn,Conditions,Clouds,dailyrainin,SoftwareType,DateUTC
2013-07-21 00:01:00,70.9,69.1,29.89,SSE,157,1.0,2.0,94,0.00,,,0.00,WeatherCatV1.20B785,2013-07-21 05:01:00,
2013-07-21 00:06:00,70.8,69.0,29.89,SSE,155,0.0,3.0,94,0.00,,,0.00,WeatherCatV1.20B785,2013-07-21 05:06:00,
2013-07-21 00:11:00,70.8,69.0,29.88,SE,144,5.0,7.0,94,0.00,,,0.00,WeatherCatV1.20B785,2013-07-21 05:11:00,
2013-07-21 00:16:00,70.7,68.9,29.88,SSE,167,2.0,5.0,94,0.00,,,0.00,WeatherCatV1.20B785,2013-07-21 05:16:00,
2013-07-21 00:21:00,70.7,68.9,29.88,SE,140,1.0,3.0,94,0.00,,,0.00,WeatherCatV1.20B785,2013-07-21 05:21:00,
2013-07-21 00:26:00,70.7,68.9,29.88,SSE,164,1.0,2.0,94,0.00,,,0.00,WeatherCatV1.20B785,2013-07-21 05:26:00,
2013-07-21 00:31:00,70.6,68.8,29.89,ESE,121,0.0,2.0,94,0.00,,,0.00,WeatherCatV1.20B785,2013-07-21 05:31:00,
2013-07-21 00:36:00,70.6,68.8,29.89,ESE,121,0.0,1.0,94,0.00,,,0.00,WeatherCatV1.20B785,2013-07-21 05:36:00,
2013-07-21 00:41:00,70.6,68.8,29.89,ESE,121,1.0,3.0,94,0.00,,,0.00,WeatherCatV1.20B785,2013-07-21 05:41:00,
2013-07-21 00:46:00,70.5,68.7,29.90,NNW,344,2.0,2.0,94,0.00,,,0.00,WeatherCatV1.20B785,2013-07-21 05:46:00,
2013-07-21 00:51:00,70.5,68.7,29.89,NNW,344,0.0,0.0,94,0.00,,,0.00,WeatherCatV1.20B785,2013-07-21 05:51:00,
2013-07-21 00:56:00,70.4,68.6,29.89,NNW,344,0.0,0.0,94,0.00,,,0.00,WeatherCatV1.20B785,2013-07-21 05:56:00,
2013-07-21 01:01:00,70.4,68.9,29.89,NNW,344,0.0,0.0,95,0.00,,,0.00,WeatherCatV1.20B785,2013-07-21 06:01:00,
2013-07-21 01:06:00,70.4,68.9,29.89,NNW,344,0.0,0.0,95,0.00,,,0.00,WeatherCatV1.20B785,2013-07-21 06:06:00,
2013-07-21 01:11:00,70.3,68.8,29.89,NNW,344,0.0,0.0,95,0.00,,,0.00,WeatherCatV1.20B785,2013-07-21 06:11:00,
2013-07-21 01:16:00,70.3,68.8,29.89,NNW,344,0.0,0.0,95,0.00,,,0.00,WeatherCatV1.20B785,2013-07-21 06:16:00,
2013-07-21 01:21:00,70.3,68.8,29.89,NNW,344,0.0,0.0,95,0.00,,,0.00,WeatherCatV1.20B785,2013-07-21 06:21:00,
2013-07-21 01:26:00,70.2,68.7,29.89,NNW,344,0.0,0.0,95,0.00,,,0.00,WeatherCatV1.20B785,2013-07-21 06:26:00,
2013-07-21 01:31:00,70.2,68.7,29.89,NNW,344,0.0,0.0,95,0.00,,,0.00,WeatherCatV1.20B785,2013-07-21 06:31:00,
2013-07-21 01:36:00,70.1,68.6,29.89,NNW,344,0.0,0.0,95,0.00,,,0.00,WeatherCatV1.20B785,2013-07-21 06:36:00,
2013-07-21 01:41:00,70.1,68.6,29.89,NNW,344,1.0,2.0,95,0.00,,,0.00,WeatherCatV1.20B785,2013-07-21 06:41:00,
2013-07-21 01:46:00,70.0,68.5,29.89,NNW,344,0.0,0.0,95,0.00,,,0.00,WeatherCatV1.20B785,2013-07-21 06:46:00,
2013-07-21 01:51:00,70.0,68.5,29.89,NNW,344,0.0,0.0,95,0.00,,,0.00,WeatherCatV1.20B785,2013-07-21 06:51:00,
2013-07-21 01:56:00,69.9,68.4,29.89,NNW,344,0.0,0.0,95,0.00,,,0.00,WeatherCatV1.20B785,2013-07-21 06:56:00,
2013-07-21 02:01:00,69.9,68.4,29.89,NNW,344,0.0,0.0,95,0.00,,,0.00,WeatherCatV1.20B785,2013-07-21 07:01:00,
2013-07-21 02:06:00,69.9,68.4,29.89,NNW,344,0.0,0.0,95,0.00,,,0.00,WeatherCatV1.20B785,2013-07-21 07:06:00,
2013-07-21 02:11:00,69.9,68.4,29.89,NNW,344,0.0,0.0,95,0.00,,,0.00,WeatherCatV1.20B785,2013-07-21 07:11:00,
2013-07-21 02:16:00,69.9,68.4,29.89,NNW,344,0.0,0.0,95,0.00,,,0.00,WeatherCatV1.20B785,2013-07-21 07:16:00,
2013-07-21 02:21:00,69.9,68.7,29.89,NNW,344,0.0,1.0,96,0.00,,,0.00,WeatherCatV1.20B785,2013-07-21 07:21:00,
2013-07-21 02:26:00,69.9,68.7,29.89,NNW,344,0.0,0.0,96,0.00,,,0.00,WeatherCatV1.20B785,2013-07-21 07:26:00,
2013-07-21 02:31:00,69.9,68.7,29.89,NNW,344,0.0,0.0,96,0.00,,,0.00,WeatherCatV1.20B785,2013-07-21 07:31:00,
2013-07-21 02:36:00,69.8,68.6,29.89,NNW,344,0.0,0.0,96,0.00,,,0.00,WeatherCatV1.20B785,2013-07-21 07:36:00,
2013-07-21 02:41:00,69.8,68.6,29.88,NNW,344,0.0,0.0,96,0.00,,,0.00,WeatherCatV1.20B785,2013-07-21 07:41:00,
2013-07-21 02:46:00,69.8,68.6,29.89,NNW,344,0.0,0.0,96,0.00,,,0.00,WeatherCatV1.20B785,2013-07-21 07:46:00,
2013-07-21 02:51:00,69.8,68.6,29.89,NNW,344,0.0,0.0,96,0.00,,,0.00,WeatherCatV1.20B785,2013-07-21 07:51:00,
2013-07-21 02:56:00,69.9,68.7,29.89,NNW,344,0.0,0.0,96,0.00,,,0.00,WeatherCatV1.20B785,2013-07-21 07:56:00,
2013-07-21 03:01:00,69.9,68.7,29.89,NNW,344,0.0,0.0,96,0.00,,,0.00,WeatherCatV1.20B785,2013-07-21 08:01:00,
2013-07-21 03:06:00,69.9,68.7,29.89,NNW,344,0.0,0.0,96,0.00,,,0.00,WeatherCatV1.20B785,2013-07-21 08:06:00,
2013-07-21 03:11:00,69.9,68.7,29.89,NNW,344,0.0,0.0,96,0.00,,,0.00,WeatherCatV1.20B785,2013-07-21 08:11:00,
2013-07-21 03:16:00,70.0,68.8,29.89,NNW,344,0.0,0.0,96,0.00,,,0.00,WeatherCatV1.20B785,2013-07-21 08:16:00,
2013-07-21 03:21:00,70.0,68.8,29.89,NNW,344,0.0,0.0,96,0.00,,,0.00,WeatherCatV1.20B785,2013-07-21 08:21:00,
2013-07-21 03:26:00,70.0,68.8,29.89,NNW,344,0.0,0.0,96,0.00,,,0.00,WeatherCatV1.20B785,2013-07-21 08:26:00,
2013-07-21 03:31:00,70.0,68.8,29.89,NNW,344,0.0,0.0,96,0.00,,,0.00,WeatherCatV1.20B785,2013-07-21 08:31:00,
2013-07-21 03:36:00,70.1,68.9,29.89,NNW,344,0.0,0.0,96,0.00,,,0.00,WeatherCatV1.20B785,2013-07-21 08:36:00,
2013-07-21 03:41:00,70.1,68.9,29.89,NNW,344,0.0,0.0,96,0.00,,,0.00,WeatherCatV1.20B785,2013-07-21 08:41:00,
2013-07-21 03:46:00,70.1,69.2,29.89,NNW,344,0.0,0.0,97,0.00,,,0.00,WeatherCatV1.20B785,2013-07-21 08:46:00,
2013-07-21 03:51:00,70.1,69.2,29.89,NNW,344,0.0,0.0,97,0.00,,,0.00,WeatherCatV1.20B785,2013-07-21 08:51:00,
2013-07-21 03:56:00,70.1,69.2,29.89,NNW,345,0.0,0.0,97,0.00,,,0.00,WeatherCatV1.20B785,2013-07-21 08:56:00,
2013-07-21 04:01:00,70.2,69.3,29.89,NNW,345,0.0,0.0,97,0.00,,,0.00,WeatherCatV1.20B785,2013-07-21 09:01:00,
2013-07-21 04:06:00,70.2,69.3,29.89,NNW,345,0.0,0.0,97,0.00,,,0.00,WeatherCatV1.20B785,2013-07-21 09:06:00,
2013-07-21 04:11:00,70.2,69.3,29.89,NNW,345,0.0,0.0,97,0.00,,,0.00,WeatherCatV1.20B785,2013-07-21 09:11:00,
2013-07-21 04:16:00,70.1,69.2,29.89,NNW,345,0.0,0.0,97,0.00,,,0.00,WeatherCatV1.20B785,2013-07-21 09:16:00,
2013-07-21 04:21:00,70.1,69.2,29.89,NNW,345,0.0,0.0,97,0.00,,,0.00,WeatherCatV1.20B785,2013-07-21 09:21:00,
2013-07-21 04:26:00,70.1,69.2,29.89,NNW,345,0.0,0.0,97,0.00,,,0.00,WeatherCatV1.20B785,2013-07-21 09:26:00,
2013-07-21 04:31:00,70.1,69.2,29.89,NNW,345,0.0,0.0,97,0.00,,,0.00,WeatherCatV1.20B785,2013-07-21 09:31:00,
2013-07-21 04:36:00,70.0,69.1,29.88,NNW,345,0.0,0.0,97,0.00,,,0.00,WeatherCatV1.20B785,2013-07-21 09:36:00,
2013-07-21 04:41:00,70.0,69.1,29.88,NNW,345,0.0,0.0,97,0.00,,,0.00,WeatherCatV1.20B785,2013-07-21 09:41:00,
2013-07-21 04:46:00,70.0,69.1,29.88,NNW,345,0.0,0.0,97,0.00,,,0.00,WeatherCatV1.20B785,2013-07-21 09:46:00,
2013-07-21 04:51:00,69.9,69.0,29.88,NNW,345,0.0,0.0,97,0.00,,,0.00,WeatherCatV1.20B785,2013-07-21 09:51:00,
2013-07-21 04:53:00,69.9,69.0,29.88,NNW,345,0.0,0.0,97,0.00,,,0.00,WeatherCatV1.20B785,2013-07-21 09:53:00,
2013-07-21 04:58:00,69.9,69.0,29.88,NNW,345,0.0,0.0,97,0.00,,,0.00,WeatherCatV1.20B785,2013-07-21 09:58:00,
2013-07-21 05:03:00,69.8,68.9,29.88,NNW,345,0.0,0.0,97,0.00,,,0.00,WeatherCatV1.20B785,2013-07-21 10:03:00,
2013-07-21 05:08:00,69.8,68.9,29.88,NNW,345,0.0,0.0,97,0.00,,,0.00,WeatherCatV1.20B785,2013-07-21 10:08:00,
2013-07-21 05:13:00,69.7,68.8,29.88,NNW,345,0.0,0.0,97,0.00,,,0.00,WeatherCatV1.20B785,2013-07-21 10:13:00,
2013-07-21 05:18:00,69.7,68.8,29.88,NNW,345,0.0,0.0,97,0.00,,,0.00,WeatherCatV1.20B785,2013-07-21 10:18:00,
2013-07-21 05:23:00,69.6,68.7,29.88,NNW,345,0.0,0.0,97,0.00,,,0.00,WeatherCatV1.20B785,2013-07-21 10:23:00,
2013-07-21 05:28:00,69.5,68.6,29.88,NNW,345,0.0,0.0,97,0.00,,,0.00,WeatherCatV1.20B785,2013-07-21 10:28:00,
2013-07-21 05:33:00,69.4,68.5,29.88,NNW,345,0.0,0.0,97,0.00,,,0.00,WeatherCatV1.20B785,2013-07-21 10:33:00,
2013-07-21 05:38:00,69.3,68.4,29.88,NNW,347,0.0,0.0,97,0.00,,,0.00,WeatherCatV1.20B785,2013-07-21 10:38:00,
2013-07-21 05:43:00,69.3,68.4,29.89,West,263,0.0,0.0,97,0.00,,,0.00,WeatherCatV1.20B785,2013-07-21 10:43:00,
2013-07-21 05:48:00,69.3,68.4,29.89,ESE,119,0.0,0.0,97,0.00,,,0.00,WeatherCatV1.20B785,2013-07-21 10:48:00,
2013-07-21 05:53:00,69.3,68.4,29.89,NNE,27,0.0,1.0,97,0.00,,,0.00,WeatherCatV1.20B785,2013-07-21 10:53:00,
2013-07-21 05:58:00,69.3,68.4,29.89,ENE,63,0.0,1.0,97,0.00,,,0.00,WeatherCatV1.20B785,2013-07-21 10:58:00,
2013-07-21 06:03:00,69.3,68.4,29.89,SE,135,1.0,1.0,97,0.00,,,0.00,WeatherCatV1.20B785,2013-07-21 11:03:00,
2013-07-21 06:08:00,69.4,68.5,29.89,SE,136,0.0,0.0,97,0.00,,,0.00,WeatherCatV1.20B785,2013-07-21 11:08:00,
2013-07-21 06:13:00,69.4,68.5,29.90,East,93,0.0,1.0,97,0.00,,,0.00,WeatherCatV1.20B785,2013-07-21 11:13:00,
2013-07-21 06:18:00,69.4,68.5,29.90,NE,37,0.0,1.0,97,0.00,,,0.00,WeatherCatV1.20B785,2013-07-21 11:18:00,
2013-07-21 06:23:00,69.5,68.6,29.91,NE,37,0.0,0.0,97,0.00,,,0.00,WeatherCatV1.20B785,2013-07-21 11:23:00,
2013-07-21 06:28:00,69.5,68.6,29.91,NE,37,0.0,0.0,97,0.00,,,0.00,WeatherCatV1.20B785,2013-07-21 11:28:00,
2013-07-21 06:33:00,69.6,68.7,29.91,West,259,0.0,1.0,97,0.00,,,0.00,WeatherCatV1.20B785,2013-07-21 11:33:00,
2013-07-21 06:38:00,69.7,68.8,29.92,West,259,1.0,1.0,97,0.00,,,0.00,WeatherCatV1.20B785,2013-07-21 11:38:00,
2013-07-21 06:43:00,69.7,68.8,29.91,SW,225,1.0,3.0,97,0.00,,,0.00,WeatherCatV1.20B785,2013-07-21 11:43:00,
2013-07-21 06:48:00,69.7,68.8,29.91,ESE,123,0.0,0.0,97,0.00,,,0.00,WeatherCatV1.20B785,2013-07-21 11:48:00,
2013-07-21 06:53:00,69.7,68.8,29.91,ESE,106,0.0,1.0,97,0.00,,,0.00,WeatherCatV1.20B785,2013-07-21 11:53:00,
2013-07-21 06:58:00,69.7,68.8,29.90,SSW,192,0.0,1.0,97,0.00,,,0.00,WeatherCatV1.20B785,2013-07-21 11:58:00,
2013-07-21 07:03:00,69.6,68.7,29.90,SSW,192,0.0,0.0,97,0.00,,,0.00,WeatherCatV1.20B785,2013-07-21 12:03:00,
2013-07-21 07:08:00,69.6,68.7,29.90,SSW,196,0.0,1.0,97,0.00,,,0.00,WeatherCatV1.20B785,2013-07-21 12:08:00,
2013-07-21 07:13:00,69.6,68.7,29.90,SSE,154,0.0,0.0,97,0.00,,,0.00,WeatherCatV1.20B785,2013-07-21 12:13:00,
2013-07-21 07:18:00,69.5,68.6,29.90,SSE,155,0.0,0.0,97,0.00,,,0.00,WeatherCatV1.20B785,2013-07-21 12:18:00,
2013-07-21 07:23:00,69.5,68.6,29.90,SSE,163,0.0,1.0,97,0.00,,,0.00,WeatherCatV1.20B785,2013-07-21 12:23:00,
2013-07-21 07:28:00,69.5,68.6,29.90,SSE,153,0.0,1.0,97,0.00,,,0.00,WeatherCatV1.20B785,2013-07-21 12:28:00,
2013-07-21 07:33:00,69.5,68.6,29.90,North,5,0.0,2.0,97,0.00,,,0.00,WeatherCatV1.20B785,2013-07-21 12:33:00,
2013-07-21 07:38:00,69.5,68.6,29.90,SE,131,0.0,0.0,97,0.00,,,0.00,WeatherCatV1.20B785,2013-07-21 12:38:00,
2013-07-21 07:43:00,69.6,68.7,29.90,ESE,106,0.0,0.0,97,0.00,,,0.00,WeatherCatV1.20B785,2013-07-21 12:43:00,
2013-07-21 07:48:00,69.7,68.8,29.90,NW,324,0.0,0.0,97,0.00,,,0.00,WeatherCatV1.20B785,2013-07-21 12:48:00,
2013-07-21 07:53:00,69.8,69.2,29.91,North,5,0.0,1.0,98,0.00,,,0.00,WeatherCatV1.20B785,2013-07-21 12:53:00,
2013-07-21 07:58:00,69.9,69.3,29.91,South,190,0.0,2.0,98,0.00,,,0.00,WeatherCatV1.20B785,2013-07-21 12:58:00,
2013-07-21 08:03:00,70.0,69.4,29.91,SSE,150,0.0,0.0,98,0.00,,,0.00,WeatherCatV1.20B785,2013-07-21 13:03:00,
2013-07-21 08:08:00,70.2,69.6,29.91,East,96,0.0,0.0,98,0.00,,,0.00,WeatherCatV1.20B785,2013-07-21 13:08:00,
2013-07-21 08:13:00,70.3,69.7,29.91,SE,128,3.0,3.0,98,0.00,,,0.00,WeatherCatV1.20B785,2013-07-21 13:13:00,
2013-07-21 08:18:00,70.4,69.8,29.91,SE,146,1.0,2.0,98,0.00,,,0.00,WeatherCatV1.20B785,2013-07-21 13:18:00,
2013-07-21 08:23:00,70.6,70.0,29.91,SE,146,0.0,0.0,98,0.00,,,0.00,WeatherCatV1.20B785,2013-07-21 13:23:00,
2013-07-21 08:28:00,70.9,70.3,29.91,SSE,148,1.0,2.0,98,0.00,,,0.00,WeatherCatV1.20B785,2013-07-21 13:28:00,
2013-07-21 08:33:00,71.1,70.5,29.91,SE,138,0.0,1.0,98,0.00,,,0.00,WeatherCatV1.20B785,2013-07-21 13:33:00,
2013-07-21 08:38:00,71.3,70.7,29.91,SE,138,0.0,1.0,98,0.00,,,0.00,WeatherCatV1.20B785,2013-07-21 13:38:00,
2013-07-21 08:43:00,71.5,70.9,29.91,SE,138,0.0,0.0,98,0.00,,,0.00,WeatherCatV1.20B785,2013-07-21 13:43:00,
2013-07-21 08:48:00,71.9,71.3,29.92,SE,138,0.0,1.0,98,0.00,,,0.00,WeatherCatV1.20B785,2013-07-21 13:48:00,
2013-07-21 08:53:00,72.3,71.7,29.92,SE,136,0.0,1.0,98,0.00,,,0.00,WeatherCatV1.20B785,2013-07-21 13:53:00,
2013-07-21 08:58:00,72.5,71.9,29.92,SE,143,0.0,1.0,98,0.00,,,0.00,WeatherCatV1.20B785,2013-07-21 13:58:00,
2013-07-21 09:03:00,72.9,72.3,29.92,SW,228,0.0,0.0,98,0.00,,,0.00,WeatherCatV1.20B785,2013-07-21 14:03:00,
2013-07-21 09:08:00,73.0,72.4,29.92,West,279,0.0,1.0,98,0.00,,,0.00,WeatherCatV1.20B785,2013-07-21 14:08:00,
2013-07-21 09:13:00,73.2,72.6,29.92,SSW,211,0.0,0.0,98,0.00,,,0.00,WeatherCatV1.20B785,2013-07-21 14:13:00,
2013-07-21 09:18:00,73.4,72.5,29.92,SSW,211,0.0,0.0,97,0.00,,,0.00,WeatherCatV1.20B785,2013-07-21 14:18:00,
2013-07-21 09:23:00,73.5,72.6,29.92,SE,132,0.0,0.0,97,0.00,,,0.00,WeatherCatV1.20B785,2013-07-21 14:23:00,
2013-07-21 09:28:00,73.7,72.8,29.92,SE,132,0.0,0.0,97,0.00,,,0.00,WeatherCatV1.20B785,2013-07-21 14:28:00,
2013-07-21 09:33:00,74.2,73.3,29.92,SE,125,0.0,2.0,97,0.00,,,0.00,WeatherCatV1.20B785,2013-07-21 14:33:00,
2013-07-21 09:38:00,74.4,73.2,29.92,SE,125,0.0,0.0,96,0.00,,,0.00,WeatherCatV1.20B785,2013-07-21 14:38:00,
2013-07-21 09:43:00,74.6,73.1,29.92,SE,126,0.0,0.0,95,0.00,,,0.00,WeatherCatV1.20B785,2013-07-21 14:43:00,
2013-07-21 09:48:00,74.9,73.1,29.92,ENE,69,0.0,1.0,94,0.00,,,0.00,WeatherCatV1.20B785,2013-07-21 14:48:00,
2013-07-21 09:53:00,75.1,72.9,29.92,ESE,103,0.0,1.0,93,0.00,,,0.00,WeatherCatV1.20B785,2013-07-21 14:53:00,
2013-07-21 09:58:00,75.3,72.8,29.92,ESE,119,1.0,1.0,92,0.00,,,0.00,WeatherCatV1.20B785,2013-07-21 14:58:00,
2013-07-21 10:03:00,75.6,72.8,29.92,SE,124,0.0,0.0,91,0.00,,,0.00,WeatherCatV1.20B785,2013-07-21 15:03:00,
2013-07-21 10:08:00,76.0,72.8,29.91,West,273,0.0,1.0,90,0.00,,,0.00,WeatherCatV1.20B785,2013-07-21 15:08:00,
2013-07-21 10:13:00,76.5,73.0,29.91,SSW,196,2.0,3.0,89,0.00,,,0.00,WeatherCatV1.20B785,2013-07-21 15:13:00,
2013-07-21 10:18:00,76.9,72.7,29.91,SW,223,0.0,1.0,87,0.00,,,0.00,WeatherCatV1.20B785,2013-07-21 15:18:00,
2013-07-21 10:23:00,77.1,71.9,29.91,SSE,147,3.0,3.0,84,0.00,,,0.00,WeatherCatV1.20B785,2013-07-21 15:23:00,
2013-07-21 10:28:00,77.3,71.7,29.90,SE,146,0.0,1.0,83,0.00,,,0.00,WeatherCatV1.20B785,2013-07-21 15:28:00,
2013-07-21 10:33:00,77.5,71.6,29.90,East,99,5.0,5.0,82,0.00,,,0.00,WeatherCatV1.20B785,2013-07-21 15:33:00,
2013-07-21 10:38:00,77.5,70.5,29.90,ESE,109,3.0,3.0,79,0.00,,,0.00,WeatherCatV1.20B785,2013-07-21 15:38:00,
2013-07-21 10:43:00,77.8,71.1,29.90,ESE,103,0.0,1.0,80,0.00,,,0.00,WeatherCatV1.20B785,2013-07-21 15:43:00,
2013-07-21 10:48:00,77.9,70.8,29.90,East,82,1.0,2.0,79,0.00,,,0.00,WeatherCatV1.20B785,2013-07-21 15:48:00,
2013-07-21 10:53:00,78.0,70.2,29.90,ESE,120,1.0,3.0,77,0.00,,,0.00,WeatherCatV1.20B785,2013-07-21 15:53:00,
2013-07-21 10:58:00,78.1,70.3,29.90,SSW,210,0.0,2.0,77,0.00,,,0.00,WeatherCatV1.20B785,2013-07-21 15:58:00,
2013-07-21 11:03:00,78.2,70.0,29.90,SE,130,1.0,3.0,76,0.00,,,0.00,WeatherCatV1.20B785,2013-07-21 16:03:00,
2013-07-21 11:08:00,78.5,70.7,29.91,SE,140,0.0,1.0,77,0.00,,,0.00,WeatherCatV1.20B785,2013-07-21 16:08:00,
2013-07-21 11:13:00,78.7,70.5,29.91,SSE,163,0.0,1.0,76,0.00,,,0.00,WeatherCatV1.20B785,2013-07-21 16:13:00,
2013-07-21 11:18:00,78.9,70.7,29.91,SSE,162,0.0,1.0,76,0.00,,,0.00,WeatherCatV1.20B785,2013-07-21 16:18:00,
2013-07-21 11:23:00,79.1,70.9,29.91,SE,146,0.0,3.0,76,0.00,,,0.00,WeatherCatV1.20B785,2013-07-21 16:23:00,
2013-07-21 11:28:00,79.1,69.3,29.91,SE,146,0.0,0.0,72,0.00,,,0.00,WeatherCatV1.20B785,2013-07-21 16:28:00,
2013-07-21 11:33:00,79.5,70.1,29.91,SE,146,1.0,1.0,73,0.00,,,0.00,WeatherCatV1.20B785,2013-07-21 16:33:00,
2013-07-21 11:38:00,79.6,69.8,29.91,SE,146,0.0,0.0,72,0.00,,,0.00,WeatherCatV1.20B785,2013-07-21 16:38:00,
2013-07-21 11:43:00,80.1,70.6,29.91,SE,146,0.0,1.0,73,0.00,,,0.00,WeatherCatV1.20B785,2013-07-21 16:43:00,
2013-07-21 11:48:00,80.2,70.7,29.92,SE,146,0.0,1.0,73,0.00,,,0.00,WeatherCatV1.20B785,2013-07-21 16:48:00,
2013-07-21 11:53:00,80.5,72.2,29.92,SE,146,0.0,0.0,76,0.00,,,0.00,WeatherCatV1.20B785,2013-07-21 16:53:00,
2013-07-21 11:58:00,80.6,71.9,29.91,SE,146,0.0,0.0,75,0.00,,,0.00,WeatherCatV1.20B785,2013-07-21 16:58:00,
2013-07-21 12:03:00,80.6,71.5,29.91,SE,146,0.0,0.0,74,0.00,,,0.00,WeatherCatV1.20B785,2013-07-21 17:03:00,
2013-07-21 12:08:00,80.5,70.6,29.91,SE,146,0.0,1.0,72,0.00,,,0.00,WeatherCatV1.20B785,2013-07-21 17:08:00,
2013-07-21 12:13:00,80.3,70.4,29.91,SE,146,0.0,0.0,72,0.00,,,0.00,WeatherCatV1.20B785,2013-07-21 17:13:00,
2013-07-21 12:18:00,80.4,71.3,29.92,SE,146,0.0,0.0,74,0.00,,,0.00,WeatherCatV1.20B785,2013-07-21 17:18:00,
2013-07-21 12:23:00,80.3,71.6,29.92,SSE,148,0.0,0.0,75,0.00,,,0.00,WeatherCatV1.20B785,2013-07-21 17:23:00,
2013-07-21 12:29:00,80.2,70.7,29.91,SSE,148,0.0,1.0,73,0.00,,,0.00,WeatherCatV1.20B785,2013-07-21 17:29:00,
2013-07-21 12:34:00,80.1,69.8,29.92,SE,126,0.0,2.0,71,0.00,,,0.00,WeatherCatV1.20B785,2013-07-21 17:34:00,
2013-07-21 12:39:00,80.1,70.2,29.91,SE,126,0.0,1.0,72,0.00,,,0.00,WeatherCatV1.20B785,2013-07-21 17:39:00,
2013-07-21 12:44:00,80.1,69.8,29.91,ESE,111,0.0,1.0,71,0.00,,,0.00,WeatherCatV1.20B785,2013-07-21 17:44:00,
2013-07-21 12:49:00,80.2,70.3,29.91,ESE,111,0.0,1.0,72,0.00,,,0.00,WeatherCatV1.20B785,2013-07-21 17:49:00,
2013-07-21 12:54:00,80.5,71.4,29.91,East,100,0.0,0.0,74,0.00,,,0.00,WeatherCatV1.20B785,2013-07-21 17:54:00,
2013-07-21 12:59:00,80.7,70.8,29.91,SW,230,0.0,2.0,72,0.00,,,0.00,WeatherCatV1.20B785,2013-07-21 17:59:00,
2013-07-21 13:04:00,81.0,71.5,29.91,SW,232,0.0,2.0,73,0.00,,,0.00,WeatherCatV1.20B785,2013-07-21 18:04:00,
2013-07-21 13:09:00,81.3,71.0,29.90,SE,127,1.0,1.0,71,0.00,,,0.00,WeatherCatV1.20B785,2013-07-21 18:09:00,
2013-07-21 13:14:00,81.5,72.4,29.90,SW,236,0.0,1.0,74,0.00,,,0.00,WeatherCatV1.20B785,2013-07-21 18:14:00,
2013-07-21 13:19:00,81.8,71.9,29.90,SW,236,2.0,3.0,72,0.00,,,0.00,WeatherCatV1.20B785,2013-07-21 18:19:00,
2013-07-21 13:24:00,81.8,71.9,29.90,SW,236,0.0,1.0,72,0.00,,,0.00,WeatherCatV1.20B785,2013-07-21 18:24:00,
2013-07-21 13:29:00,81.9,72.8,29.90,WSW,248,0.0,1.0,74,0.00,,,0.00,WeatherCatV1.20B785,2013-07-21 18:29:00,
2013-07-21 13:34:00,81.7,73.0,29.90,WSW,248,0.0,3.0,75,0.00,,,0.00,WeatherCatV1.20B785,2013-07-21 18:34:00,
2013-07-21 13:39:00,81.2,73.3,29.90,NW,309,1.0,2.0,77,0.00,,,0.00,WeatherCatV1.20B785,2013-07-21 18:39:00,
2013-07-21 13:44:00,80.7,73.6,29.89,NW,309,0.0,1.0,79,0.00,,,0.00,WeatherCatV1.20B785,2013-07-21 18:44:00,
2013-07-21 13:49:00,80.2,73.1,29.88,NW,304,0.0,1.0,79,0.00,,,0.00,WeatherCatV1.20B785,2013-07-21 18:49:00,
2013-07-21 13:54:00,79.5,72.8,29.88,SE,132,2.0,2.0,80,0.00,,,0.00,WeatherCatV1.20B785,2013-07-21 18:54:00,
2013-07-21 13:59:00,79.4,73.0,29.87,SSE,153,0.0,1.0,81,0.00,,,0.00,WeatherCatV1.20B785,2013-07-21 18:59:00,
2013-07-21 14:04:00,79.9,73.2,29.87,SW,223,1.0,3.0,80,0.00,,,0.00,WeatherCatV1.20B785,2013-07-21 19:04:00,
2013-07-21 14:09:00,80.2,73.1,29.87,SW,214,0.0,1.0,79,0.00,,,0.00,WeatherCatV1.20B785,2013-07-21 19:09:00,
2013-07-21 14:14:00,80.4,73.3,29.87,SSW,205,1.0,1.0,79,0.00,,,0.00,WeatherCatV1.20B785,2013-07-21 19:14:00,
2013-07-21 14:19:00,80.8,73.7,29.86,SW,235,2.0,3.0,79,0.00,,,0.00,WeatherCatV1.20B785,2013-07-21 19:19:00,
2013-07-21 14:24:00,81.3,73.0,29.86,WNW,289,1.0,3.0,76,0.00,,,0.00,WeatherCatV1.20B785,2013-07-21 19:24:00,
2013-07-21 14:29:00,81.3,72.2,29.86,WNW,291,2.0,3.0,74,0.00,,,0.00,WeatherCatV1.20B785,2013-07-21 19:29:00,
2013-07-21 14:34:00,81.4,72.7,29.86,WNW,292,1.0,2.0,75,0.00,,,0.00,WeatherCatV1.20B785,2013-07-21 19:34:00,
2013-07-21 14:39:00,81.6,72.9,29.85,WNW,292,0.0,0.0,75,0.00,,,0.00,WeatherCatV1.20B785,2013-07-21 19:39:00,
2013-07-21 14:44:00,81.9,72.8,29.85,SE,139,0.0,1.0,74,0.00,,,0.00,WeatherCatV1.20B785,2013-07-21 19:44:00,
2013-07-21 14:49:00,82.0,72.9,29.85,East,83,1.0,2.0,74,0.00,,,0.00,WeatherCatV1.20B785,2013-07-21 19:49:00,
2013-07-21 14:54:00,82.3,72.8,29.85,SE,137,1.0,2.0,73,0.00,,,0.00,WeatherCatV1.20B785,2013-07-21 19:54:00,
2013-07-21 14:59:00,82.4,72.8,29.85,West,279,2.0,3.0,73,0.00,,,0.00,WeatherCatV1.20B785,2013-07-21 19:59:00,
2013-07-21 15:04:00,82.4,73.3,29.85,SSW,199,1.0,4.0,74,0.00,,,0.00,WeatherCatV1.20B785,2013-07-21 20:04:00,
2013-07-21 15:09:00,82.5,73.3,29.85,SSW,199,0.0,3.0,74,0.00,,,0.00,WeatherCatV1.20B785,2013-07-21 20:09:00,
2013-07-21 15:14:00,82.6,73.0,29.85,SSW,199,0.0,1.0,73,0.00,,,0.00,WeatherCatV1.20B785,2013-07-21 20:14:00,
2013-07-21 15:19:00,82.8,73.2,29.84,SE,138,1.0,1.0,73,0.00,,,0.00,WeatherCatV1.20B785,2013-07-21 20:19:00,
2013-07-21 15:24:00,83.0,73.4,29.84,West,261,0.0,0.0,73,0.00,,,0.00,WeatherCatV1.20B785,2013-07-21 20:24:00,
2013-07-21 15:29:00,83.2,73.2,29.84,SSW,209,1.0,7.0,72,0.00,,,0.00,WeatherCatV1.20B785,2013-07-21 20:29:00,
2013-07-21 15:34:00,83.3,73.7,29.84,SSW,194,1.0,3.0,73,0.00,,,0.00,WeatherCatV1.20B785,2013-07-21 20:34:00,
2013-07-21 15:39:00,83.1,73.1,29.84,WSW,237,2.0,4.0,72,0.00,,,0.00,WeatherCatV1.20B785,2013-07-21 20:39:00,
2013-07-21 15:44:00,82.9,73.3,29.84,South,177,1.0,3.0,73,0.00,,,0.00,WeatherCatV1.20B785,2013-07-21 20:44:00,
2013-07-21 15:49:00,82.8,73.2,29.84,SW,225,1.0,6.0,73,0.00,,,0.00,WeatherCatV1.20B785,2013-07-21 20:49:00,
2013-07-21 15:54:00,82.7,73.1,29.84,SW,234,1.0,1.0,73,0.00,,,0.00,WeatherCatV1.20B785,2013-07-21 20:54:00,
2013-07-21 15:59:00,82.6,73.0,29.84,SW,232,1.0,4.0,73,0.00,,,0.00,WeatherCatV1.20B785,2013-07-21 20:59:00,
2013-07-21 16:04:00,82.7,73.5,29.84,WSW,246,2.0,3.0,74,0.00,,,0.00,WeatherCatV1.20B785,2013-07-21 21:04:00,
2013-07-21 16:09:00,82.7,72.3,29.83,SW,225,1.0,6.0,71,0.00,,,0.00,WeatherCatV1.20B785,2013-07-21 21:09:00,
2013-07-21 16:14:00,82.6,71.4,29.83,West,259,1.0,4.0,69,0.00,,,0.00,WeatherCatV1.20B785,2013-07-21 21:14:00,
2013-07-21 16:19:00,82.5,71.7,29.83,SW,226,0.0,3.0,70,0.00,,,0.00,WeatherCatV1.20B785,2013-07-21 21:19:00,
2013-07-21 16:24:00,82.4,71.6,29.83,South,185,2.0,3.0,70,0.00,,,0.00,WeatherCatV1.20B785,2013-07-21 21:24:00,
2013-07-21 16:29:00,82.1,71.3,29.83,SSE,163,3.0,4.0,70,0.00,,,0.00,WeatherCatV1.20B785,2013-07-21 21:29:00,
2013-07-21 16:34:00,81.7,70.5,29.83,South,189,2.0,4.0,69,0.00,,,0.00,WeatherCatV1.20B785,2013-07-21 21:34:00,
2013-07-21 16:39:00,81.4,70.2,29.83,SSE,158,0.0,5.0,69,0.00,,,0.00,WeatherCatV1.20B785,2013-07-21 21:39:00,
2013-07-21 16:44:00,81.2,70.5,29.83,South,182,0.0,5.0,70,0.00,,,0.00,WeatherCatV1.20B785,2013-07-21 21:44:00,
2013-07-21 16:49:00,81.2,71.3,29.83,SSW,207,0.0,1.0,72,0.00,,,0.00,WeatherCatV1.20B785,2013-07-21 21:49:00,
2013-07-21 16:54:00,81.2,71.3,29.83,SSW,213,0.0,2.0,72,0.00,,,0.00,WeatherCatV1.20B785,2013-07-21 21:54:00,
2013-07-21 16:59:00,81.2,71.7,29.83,SSW,213,0.0,1.0,73,0.00,,,0.00,WeatherCatV1.20B785,2013-07-21 21:59:00,
2013-07-21 17:04:00,81.2,72.1,29.83,SSW,213,0.0,0.0,74,0.00,,,0.00,WeatherCatV1.20B785,2013-07-21 22:04:00,
2013-07-21 17:09:00,81.1,72.4,29.83,WSW,241,1.0,6.0,75,0.00,,,0.00,WeatherCatV1.20B785,2013-07-21 22:09:00,
2013-07-21 17:16:00,80.4,72.5,29.84,SW,225,0.0,3.0,77,0.00,,,0.00,WeatherCatV1.20B785,2013-07-21 22:16:00,
2013-07-21 17:21:00,79.6,72.5,29.83,SSW,202,0.0,2.0,79,0.00,,,0.00,WeatherCatV1.20B785,2013-07-21 22:21:00,
2013-07-21 17:26:00,79.0,72.7,29.84,WSW,244,3.0,3.0,81,0.00,,,0.00,WeatherCatV1.20B785,2013-07-21 22:26:00,
2013-07-21 17:31:00,78.7,73.4,29.83,South,184,0.0,1.0,84,0.00,,,0.00,WeatherCatV1.20B785,2013-07-21 22:31:00,
2013-07-21 17:36:00,78.3,73.4,29.83,South,186,1.0,1.0,85,0.00,,,0.00,WeatherCatV1.20B785,2013-07-21 22:36:00,
2013-07-21 17:41:00,77.8,72.9,29.83,SE,131,0.0,1.0,85,0.00,,,0.00,WeatherCatV1.20B785,2013-07-21 22:41:00,
2013-07-21 17:46:00,77.4,72.9,29.83,South,190,0.0,2.0,86,0.00,,,0.00,WeatherCatV1.20B785,2013-07-21 22:46:00,
2013-07-21 17:51:00,77.1,72.6,29.83,South,187,0.0,0.0,86,0.00,,,0.00,WeatherCatV1.20B785,2013-07-21 22:51:00,
2013-07-21 17:56:00,77.0,72.5,29.83,East,80,2.0,2.0,86,0.00,,,0.00,WeatherCatV1.20B785,2013-07-21 22:56:00,
2013-07-21 18:01:00,76.8,72.6,29.83,East,80,0.0,0.0,87,0.00,,,0.00,WeatherCatV1.20B785,2013-07-21 23:01:00,
2013-07-21 18:06:00,76.7,72.5,29.83,East,81,1.0,1.0,87,0.00,,,0.00,WeatherCatV1.20B785,2013-07-21 23:06:00,
2013-07-21 18:11:00,76.5,72.7,29.83,ESE,119,0.0,2.0,88,0.00,,,0.00,WeatherCatV1.20B785,2013-07-21 23:11:00,
2013-07-21 18:16:00,76.4,72.6,29.82,ESE,122,0.0,2.0,88,0.00,,,0.00,WeatherCatV1.20B785,2013-07-21 23:16:00,
2013-07-21 18:21:00,76.4,72.6,29.82,ESE,122,0.0,0.0,88,0.00,,,0.00,WeatherCatV1.20B785,2013-07-21 23:21:00,
2013-07-21 18:26:00,76.3,72.5,29.82,ESE,121,0.0,1.0,88,0.00,,,0.00,WeatherCatV1.20B785,2013-07-21 23:26:00,
2013-07-21 18:31:00,76.2,72.4,29.83,ESE,123,2.0,2.0,88,0.00,,,0.00,WeatherCatV1.20B785,2013-07-21 23:31:00,
2013-07-21 18:36:00,76.1,72.6,29.83,East,88,0.0,0.0,89,0.00,,,0.00,WeatherCatV1.20B785,2013-07-21 23:36:00,
2013-07-21 18:41:00,76.0,72.5,29.83,East,88,0.0,0.0,89,0.00,,,0.00,WeatherCatV1.20B785,2013-07-21 23:41:00,
2013-07-21 18:46:00,75.8,72.3,29.83,East,88,0.0,1.0,89,0.00,,,0.00,WeatherCatV1.20B785,2013-07-21 23:46:00,
2013-07-21 18:51:00,75.9,72.8,29.83,East,88,0.0,0.0,90,0.00,,,0.00,WeatherCatV1.20B785,2013-07-21 23:51:00,
2013-07-21 18:56:00,75.9,72.8,29.83,ESE,119,4.0,4.0,90,0.00,,,0.00,WeatherCatV1.20B785,2013-07-21 23:56:00,
2013-07-21 19:01:00,75.8,72.7,29.83,ESE,111,0.0,2.0,90,0.00,,,0.00,WeatherCatV1.20B785,2013-07-22 00:01:00,
2013-07-21 19:06:00,75.8,73.0,29.83,SSE,161,1.0,2.0,91,0.00,,,0.00,WeatherCatV1.20B785,2013-07-22 00:06:00,
2013-07-21 19:11:00,75.8,73.0,29.83,SSE,153,0.0,1.0,91,0.00,,,0.00,WeatherCatV1.20B785,2013-07-22 00:11:00,
2013-07-21 19:16:00,75.8,73.0,29.83,WSW,245,1.0,1.0,91,0.00,,,0.00,WeatherCatV1.20B785,2013-07-22 00:16:00,
2013-07-21 19:21:00,75.9,73.1,29.83,West,278,0.0,1.0,91,0.00,,,0.00,WeatherCatV1.20B785,2013-07-22 00:21:00,
2013-07-21 19:26:00,76.0,73.2,29.83,South,173,0.0,2.0,91,0.00,,,0.00,WeatherCatV1.20B785,2013-07-22 00:26:00,
2013-07-21 19:31:00,75.9,73.4,29.83,SSE,150,0.0,2.0,92,0.00,,,0.00,WeatherCatV1.20B785,2013-07-22 00:31:00,
2013-07-21 19:36:00,75.9,73.4,29.83,East,84,0.0,1.0,92,0.00,,,0.00,WeatherCatV1.20B785,2013-07-22 00:36:00,
2013-07-21 19:41:00,75.9,73.4,29.83,SSW,208,0.0,1.0,92,0.00,,,0.00,WeatherCatV1.20B785,2013-07-22 00:41:00,
2013-07-21 19:46:00,75.9,73.4,29.83,SSW,208,0.0,0.0,92,0.00,,,0.00,WeatherCatV1.20B785,2013-07-22 00:46:00,
2013-07-21 19:51:00,75.9,73.4,29.83,SSE,165,0.0,0.0,92,0.00,,,0.00,WeatherCatV1.20B785,2013-07-22 00:51:00,
2013-07-21 19:56:00,75.9,73.4,29.83,SSE,165,0.0,2.0,92,0.00,,,0.00,WeatherCatV1.20B785,2013-07-22 00:56:00,
2013-07-21 20:01:00,75.8,73.3,29.83,SSE,166,0.0,1.0,92,0.00,,,0.00,WeatherCatV1.20B785,2013-07-22 01:01:00,
2013-07-21 20:06:00,75.8,73.3,29.83,SW,227,0.0,1.0,92,0.00,,,0.00,WeatherCatV1.20B785,2013-07-22 01:06:00,
2013-07-21 20:11:00,75.7,73.2,29.83,SW,227,0.0,0.0,92,0.00,,,0.00,WeatherCatV1.20B785,2013-07-22 01:11:00,
2013-07-21 20:16:00,75.5,73.0,29.83,SW,227,0.0,1.0,92,0.00,,,0.00,WeatherCatV1.20B785,2013-07-22 01:16:00,
2013-07-21 20:21:00,75.5,73.0,29.83,SW,227,0.0,0.0,92,0.00,,,0.00,WeatherCatV1.20B785,2013-07-22 01:21:00,
2013-07-21 20:26:00,75.4,72.9,29.83,SW,227,0.0,0.0,92,0.00,,,0.00,WeatherCatV1.20B785,2013-07-22 01:26:00,
2013-07-21 20:31:00,75.4,72.9,29.83,SW,227,0.0,0.0,92,0.00,,,0.00,WeatherCatV1.20B785,2013-07-22 01:31:00,
2013-07-21 20:36:00,75.3,72.8,29.83,SW,227,0.0,0.0,92,0.00,,,0.00,WeatherCatV1.20B785,2013-07-22 01:36:00,
2013-07-21 20:41:00,75.3,72.8,29.83,SW,227,0.0,0.0,92,0.00,,,0.00,WeatherCatV1.20B785,2013-07-22 01:41:00,
2013-07-21 20:46:00,75.2,72.7,29.83,SW,227,0.0,0.0,92,0.00,,,0.00,WeatherCatV1.20B785,2013-07-22 01:46:00,
2013-07-21 20:51:00,75.1,72.6,29.83,SW,227,0.0,0.0,92,0.00,,,0.00,WeatherCatV1.20B785,2013-07-22 01:51:00,
2013-07-21 20:56:00,75.0,72.5,29.84,SW,227,0.0,0.0,92,0.00,,,0.00,WeatherCatV1.20B785,2013-07-22 01:56:00,
2013-07-21 21:01:00,75.0,72.8,29.84,SW,227,0.0,0.0,93,0.00,,,0.00,WeatherCatV1.20B785,2013-07-22 02:01:00,
2013-07-21 21:06:00,74.9,72.7,29.84,SW,227,0.0,0.0,93,0.00,,,0.00,WeatherCatV1.20B785,2013-07-22 02:06:00,
2013-07-21 21:11:00,74.8,72.6,29.84,SW,227,0.0,0.0,93,0.00,,,0.00,WeatherCatV1.20B785,2013-07-22 02:11:00,
2013-07-21 21:16:00,74.7,72.5,29.84,SW,227,0.0,0.0,93,0.00,,,0.00,WeatherCatV1.20B785,2013-07-22 02:16:00,
2013-07-21 21:21:00,74.7,72.5,29.84,SSW,201,0.0,1.0,93,0.00,,,0.00,WeatherCatV1.20B785,2013-07-22 02:21:00,
2013-07-21 21:26:00,74.6,72.4,29.84,SSW,201,0.0,0.0,93,0.00,,,0.00,WeatherCatV1.20B785,2013-07-22 02:26:00,
2013-07-21 21:31:00,74.6,72.4,29.84,SSW,201,0.0,0.0,93,0.00,,,0.00,WeatherCatV1.20B785,2013-07-22 02:31:00,
2013-07-21 21:36:00,74.6,72.8,29.84,SSW,201,0.0,0.0,94,0.00,,,0.00,WeatherCatV1.20B785,2013-07-22 02:36:00,
2013-07-21 21:41:00,74.5,72.7,29.84,SSW,201,0.0,0.0,94,0.00,,,0.00,WeatherCatV1.20B785,2013-07-22 02:41:00,
2013-07-21 21:46:00,74.5,72.7,29.84,SE,138,0.0,0.0,94,0.00,,,0.00,WeatherCatV1.20B785,2013-07-22 02:46:00,
2013-07-21 21:51:00,74.4,72.6,29.85,SE,138,0.0,0.0,94,0.00,,,0.00,WeatherCatV1.20B785,2013-07-22 02:51:00,
2013-07-21 21:56:00,74.4,72.6,29.85,SE,138,0.0,1.0,94,0.00,,,0.00,WeatherCatV1.20B785,2013-07-22 02:56:00,
2013-07-21 22:01:00,74.3,72.4,29.85,SE,138,0.0,1.0,94,0.00,,,0.00,WeatherCatV1.20B785,2013-07-22 03:01:00,
2013-07-21 22:06:00,74.2,72.4,29.85,SE,138,0.0,1.0,94,0.00,,,0.00,WeatherCatV1.20B785,2013-07-22 03:06:00,
2013-07-21 22:11:00,74.2,72.4,29.85,SE,138,0.0,1.0,94,0.00,,,0.00,WeatherCatV1.20B785,2013-07-22 03:11:00,
2013-07-21 22:16:00,74.1,72.3,29.85,SE,138,0.0,1.0,94,0.00,,,0.00,WeatherCatV1.20B785,2013-07-22 03:16:00,
2013-07-21 22:21:00,74.1,72.3,29.85,SE,138,0.0,0.0,94,0.00,,,0.00,WeatherCatV1.20B785,2013-07-22 03:21:00,
2013-07-21 22:26:00,74.0,72.5,29.85,SE,138,0.0,0.0,95,0.00,,,0.00,WeatherCatV1.20B785,2013-07-22 03:26:00,
2013-07-21 22:31:00,74.0,72.5,29.85,SE,138,0.0,0.0,95,0.00,,,0.00,WeatherCatV1.20B785,2013-07-22 03:31:00,
2013-07-21 22:36:00,73.9,72.4,29.85,SE,138,0.0,0.0,95,0.00,,,0.00,WeatherCatV1.20B785,2013-07-22 03:36:00,
2013-07-21 22:41:00,73.8,72.3,29.85,SE,138,0.0,0.0,95,0.00,,,0.00,WeatherCatV1.20B785,2013-07-22 03:41:00,
2013-07-21 22:46:00,73.8,72.3,29.85,SE,138,0.0,0.0,95,0.00,,,0.00,WeatherCatV1.20B785,2013-07-22 03:46:00,
2013-07-21 22:51:00,73.7,72.2,29.85,SE,138,0.0,0.0,95,0.00,,,0.00,WeatherCatV1.20B785,2013-07-22 03:51:00,
2013-07-21 22:56:00,73.6,72.1,29.85,SE,138,0.0,0.0,95,0.00,,,0.00,WeatherCatV1.20B785,2013-07-22 03:56:00,
2013-07-21 23:01:00,73.5,72.0,29.85,SE,138,0.0,0.0,95,0.00,,,0.00,WeatherCatV1.20B785,2013-07-22 04:01:00,
2013-07-21 23:06:00,73.4,71.9,29.86,SE,138,0.0,0.0,95,0.00,,,0.00,WeatherCatV1.20B785,2013-07-22 04:06:00,
2013-07-21 23:11:00,73.4,71.9,29.85,SE,138,0.0,0.0,95,0.00,,,0.00,WeatherCatV1.20B785,2013-07-22 04:11:00,
2013-07-21 23:16:00,73.3,71.8,29.85,SE,138,0.0,0.0,95,0.00,,,0.00,WeatherCatV1.20B785,2013-07-22 04:16:00,
2013-07-21 23:21:00,73.2,71.7,29.85,SE,138,0.0,0.0,95,0.00,,,0.00,WeatherCatV1.20B785,2013-07-22 04:21:00,
2013-07-21 23:26:00,73.2,71.7,29.85,SE,138,0.0,0.0,95,0.00,,,0.00,WeatherCatV1.20B785,2013-07-22 04:26:00,
2013-07-21 23:31:00,73.1,71.6,29.85,SE,138,0.0,0.0,95,0.00,,,0.00,WeatherCatV1.20B785,2013-07-22 04:31:00,
2013-07-21 23:36:00,73.1,71.6,29.85,SE,138,0.0,0.0,95,0.00,,,0.00,WeatherCatV1.20B785,2013-07-22 04:36:00,
2013-07-21 23:41:00,73.0,71.5,29.85,SE,138,0.0,0.0,95,0.00,,,0.00,WeatherCatV1.20B785,2013-07-22 04:41:00,
2013-07-21 23:46:00,73.0,71.8,29.84,SE,138,1.0,1.0,96,0.00,,,0.00,WeatherCatV1.20B785,2013-07-22 04:46:00,
2013-07-21 23:51:00,72.9,71.7,29.84,SE,138,0.0,0.0,96,0.00,,,0.00,WeatherCatV1.20B785,2013-07-22 04:51:00,
2013-07-21 23:56:00,72.9,71.4,29.84,SE,138,0.0,0.0,95,0.00,,,0.00,WeatherCatV1.20B785,2013-07-22 04:56:00,